| time (UTC) | temp F | wind direction | speed MPH | gust MPH | rain 1hr in | rain 24hr in | rain mn in | humidity % | barometer mb |
| 20260504204400 | 74 | 241 | 3.0 | 10.0 | 0.00 | 0.00 | 0.00 | 45 | |
| 20260504204200 | 74 | 154 | 4.0 | 10.0 | 0.00 | 0.00 | 0.00 | 44 | |
| 20260504203800 | 74 | 181 | 3.0 | 16.0 | 0.00 | 0.00 | 0.00 | 43 | |
| 20260504203600 | 75 | 144 | 4.0 | 16.0 | 0.00 | 0.00 | 0.00 | 43 | |
| 20260504203400 | 75 | 137 | 3.0 | 16.0 | 0.00 | 0.00 | 0.00 | 44 | |
| 20260504203200 | 75 | 162 | 5.0 | 16.0 | 0.00 | 0.00 | 0.00 | 43 | |
| 20260504203006 | 75 | 187 | 3.0 | 10.0 | 0.00 | 0.00 | 0.00 | 44 | |
| 20260504202800 | 75 | 154 | 4.0 | 10.0 | 0.00 | 0.00 | 0.00 | 43 | |
| 20260504202401 | 75 | 245 | 2.0 | 8.0 | 0.00 | 0.00 | 0.00 | 44 | |
| 20260504202201 | 75 | 162 | 2.0 | 10.0 | 0.00 | 0.00 | 0.00 | 43 | |
| 20260504202005 | 75 | 214 | 3.0 | 10.0 | 0.00 | 0.00 | 0.00 | 43 | |
| 20260504201600 | 75 | 154 | 4.0 | 10.0 | 0.00 | 0.00 | 0.00 | 43 | |
| 20260504201400 | 75 | 142 | 3.0 | 8.0 | 0.00 | 0.00 | 0.00 | 42 | |
| 20260504201005 | 76 | 146 | 4.0 | 7.0 | 0.00 | 0.00 | 0.00 | 42 | |
| 20260504200759 | 76 | 155 | 4.0 | 7.0 | 0.00 | 0.00 | 0.00 | 42 | |
| 20260504200600 | 76 | 168 | 3.0 | 7.0 | 0.00 | 0.00 | 0.00 | 44 | |
| 20260504200401 | 76 | 122 | 1.0 | 4.0 | 0.00 | 0.00 | 0.00 | 43 | |
| 20260504200201 | 76 | 72 | 1.0 | 4.0 | 0.00 | 0.00 | 0.00 | 44 | |
| 20260504200004 | 76 | 177 | 1.0 | 6.0 | 0.00 | 0.00 | 0.00 | 42 | |
| 20260504195800 | 76 | 180 | 1.0 | 9.0 | 0.00 | 0.00 | 0.00 | 43 | |
| 20260504195401 | 76 | 212 | 2.0 | 9.0 | 0.00 | 0.00 | 0.00 | 41 | |
| 20260504195001 | 76 | 115 | 1.0 | 7.0 | 0.00 | 0.00 | 0.00 | 40 | |
| 20260504194800 | 76 | 193 | 0.0 | 7.0 | 0.00 | 0.00 | 0.00 | 38 | |
| 20260504194559 | 76 | 193 | 2.0 | 7.0 | 0.00 | 0.00 | 0.00 | 38 | |
| 20260504194401 | 75 | 193 | 2.0 | 5.0 | 0.00 | 0.00 | 0.00 | 41 | |
| 20260504194158 | 75 | 194 | 0.0 | 4.0 | 0.00 | 0.00 | 0.00 | 44 | |
| 20260504194005 | 75 | 204 | 1.0 | 6.0 | 0.00 | 0.00 | 0.00 | 43 | |
| 20260504193800 | 75 | 216 | 1.0 | 6.0 | 0.00 | 0.00 | 0.00 | 44 | |
| 20260504193559 | 75 | 36 | 1.0 | 6.0 | 0.00 | 0.00 | 0.00 | 42 | |
| 20260504193400 | 75 | 68 | 1.0 | 6.0 | 0.00 | 0.00 | 0.00 | 44 | |
| 20260504193159 | 75 | 218 | 2.0 | 6.0 | 0.00 | 0.00 | 0.00 | 46 | |
| 20260504193005 | 75 | 350 | 2.0 | 4.0 | 0.00 | 0.00 | 0.00 | 47 | |
| 20260504192802 | 75 | 324 | 1.0 | 4.0 | 0.00 | 0.00 | 0.00 | 45 | |
| 20260504192559 | 75 | 155 | 2.0 | 4.0 | 0.00 | 0.00 | 0.00 | 43 | |
| 20260504192359 | 75 | 270 | 0.0 | 6.0 | 0.00 | 0.00 | 0.00 | 42 | |
| 20260504191759 | 75 | 134 | 2.0 | 6.0 | 0.00 | 0.00 | 0.00 | 44 | |
| 20260504191359 | 75 | 208 | 2.0 | 5.0 | 0.00 | 0.00 | 0.00 | 44 | |
| 20260504191158 | 75 | 141 | 3.0 | 5.0 | 0.00 | 0.00 | 0.00 | 44 | |
| 20260504191004 | 75 | 129 | 2.0 | 5.0 | 0.00 | 0.00 | 0.00 | 46 | |
| 20260504190759 | 75 | 77 | 1.0 | 4.0 | 0.00 | 0.00 | 0.00 | 45 | |
| 20260504190559 | 76 | 70 | 1.0 | 3.0 | 0.00 | 0.00 | 0.00 | 46 | |
| 20260504190400 | 76 | 60 | 0.0 | 3.0 | 0.00 | 0.00 | 0.00 | 49 | |
| 20260504190200 | 76 | 41 | 1.0 | 3.0 | 0.00 | 0.00 | 0.00 | 47 | |
| 20260504185559 | 76 | 112 | 1.0 | 6.0 | 0.00 | 0.00 | 0.00 | 43 | |
| 20260504185359 | 76 | 165 | 1.0 | 6.0 | 0.00 | 0.00 | 0.00 | 43 | |
| 20260504185200 | 75 | 155 | 1.0 | 6.0 | 0.00 | 0.00 | 0.00 | 41 | |
| 20260504185005 | 75 | 130 | 0.0 | 6.0 | 0.00 | 0.00 | 0.00 | 41 | |
| 20260504184759 | 75 | 123 | 3.0 | 6.0 | 0.00 | 0.00 | 0.00 | 41 | |
| 20260504184559 | 75 | 167 | 2.0 | 6.0 | 0.00 | 0.00 | 0.00 | 42 | |
| 20260504184359 | 75 | 154 | 1.0 | 5.0 | 0.00 | 0.00 | 0.00 | 42 | |
| 20260504184200 | 75 | 154 | 2.0 | 5.0 | 0.00 | 0.00 | 0.00 | 42 | |
| 20260504184004 | 75 | 149 | 0.0 | 8.0 | 0.00 | 0.00 | 0.00 | 42 | |
| 20260504183759 | 75 | 149 | 0.0 | 8.0 | 0.00 | 0.00 | 0.00 | 41 | |
| 20260504183600 | 75 | 149 | 1.0 | 8.0 | 0.00 | 0.00 | 0.00 | 41 | |
| 20260504183359 | 75 | 148 | 2.0 | 8.0 | 0.00 | 0.00 | 0.00 | 40 | |
| 20260504183159 | 75 | 227 | 1.0 | 6.0 | 0.00 | 0.00 | 0.00 | 39 | |
| 20260504182759 | 75 | 137 | 2.0 | 6.0 | 0.00 | 0.00 | 0.00 | 40 | |
| 20260504182559 | 75 | 120 | 1.0 | 8.0 | 0.00 | 0.00 | 0.00 | 40 | |
| 20260504182400 | 75 | 140 | 1.0 | 8.0 | 0.00 | 0.00 | 0.00 | 41 | |
| 20260504182202 | 75 | 144 | 2.0 | 8.0 | 0.00 | 0.00 | 0.00 | 40 | |
| 20260504182005 | 75 | 164 | 3.0 | 8.0 | 0.00 | 0.00 | 0.00 | 42 | |
| 20260504181600 | 74 | 156 | 0.0 | 6.0 | 0.00 | 0.00 | 0.00 | 41 | |
| 20260504181401 | 74 | 156 | 2.0 | 6.0 | 0.00 | 0.00 | 0.00 | 40 | |
| 20260504181003 | 74 | 162 | 2.0 | 6.0 | 0.00 | 0.00 | 0.00 | 42 | |
| 20260504180558 | 74 | 162 | 1.0 | 10.0 | 0.00 | 0.00 | 0.00 | 42 | |
| 20260504180159 | 74 | 184 | 1.0 | 10.0 | 0.00 | 0.00 | 0.00 | 44 | |
| 20260504180005 | 74 | 310 | 1.0 | 10.0 | 0.00 | 0.00 | 0.00 | 47 | |
| 20260504175758 | 73 | 162 | 3.0 | 10.0 | 0.00 | 0.00 | 0.00 | 43 | |
| 20260504175600 | 73 | 41 | 0.0 | 3.0 | 0.00 | 0.00 | 0.00 | 46 | |
| 20260504175359 | 73 | 39 | 0.0 | 5.0 | 0.00 | 0.00 | 0.00 | 52 | |
| 20260504175159 | 73 | 39 | 2.0 | 5.0 | 0.00 | 0.00 | 0.00 | 47 | |
| 20260504174759 | 73 | 54 | 1.0 | 5.0 | 0.00 | 0.00 | 0.00 | 48 | |
| 20260504174559 | 73 | 222 | 1.0 | 5.0 | 0.00 | 0.00 | 0.00 | 47 | |
| 20260504174359 | 73 | 350 | 1.0 | 5.0 | 0.00 | 0.00 | 0.00 | 45 | |
| 20260504174200 | 73 | 160 | 2.0 | 5.0 | 0.00 | 0.00 | 0.00 | 45 | |
| 20260504174006 | 73 | 45 | 1.0 | 4.0 | 0.00 | 0.00 | 0.00 | 47 | |
| 20260504173759 | 73 | 299 | 1.0 | 4.0 | 0.00 | 0.00 | 0.00 | 49 | |
| 20260504173601 | 73 | 23 | 1.0 | 4.0 | 0.00 | 0.00 | 0.00 | 52 | |
| 20260504173400 | 72 | 43 | 1.0 | 4.0 | 0.00 | 0.00 | 0.00 | 55 | |
| 20260504173200 | 72 | 47 | 1.0 | 4.0 | 0.00 | 0.00 | 0.00 | 54 | |
| 20260504172759 | 72 | 45 | 0.0 | 3.0 | 0.00 | 0.00 | 0.00 | 53 | |
| 20260504172600 | 72 | 43 | 1.0 | 4.0 | 0.00 | 0.00 | 0.00 | 51 | |
| 20260504172200 | 72 | 8 | 2.0 | 4.0 | 0.00 | 0.00 | 0.00 | 53 | |
| 20260504172004 | 71 | 35 | 1.0 | 4.0 | 0.00 | 0.00 | 0.00 | 53 | |
| 20260504171759 | 71 | 93 | 1.0 | 5.0 | 0.00 | 0.00 | 0.00 | 53 | |
| 20260504171604 | 71 | 120 | 0.0 | 3.0 | 0.00 | 0.00 | 0.00 | 51 | |
| 20260504171402 | 71 | 121 | 1.0 | 3.0 | 0.00 | 0.00 | 0.00 | 49 | |
| 20260504171159 | 71 | 120 | 1.0 | 3.0 | 0.00 | 0.00 | 0.00 | 49 | |
| 20260504170601 | 70 | 58 | 1.0 | 5.0 | 0.00 | 0.00 | 0.00 | 51 | |
| 20260504170401 | 70 | 176 | 1.0 | 5.0 | 0.00 | 0.00 | 0.00 | 49 | |
| 20260504170200 | 70 | 48 | 0.0 | 5.0 | 0.00 | 0.00 | 0.00 | 54 | |
| 20260504160359 | 71 | 65 | 0.0 | 3.0 | 0.00 | 0.00 | 0.00 | 53 | |
| 20260504160200 | 71 | 46 | 1.0 | 3.0 | 0.00 | 0.00 | 0.00 | 50 | |
| 20260504150800 | 68 | 228 | 3.0 | 6.0 | 0.00 | 0.00 | 0.00 | 41 | |
| 20260504150600 | 67 | 195 | 2.0 | 6.0 | 0.00 | 0.00 | 0.00 | 42 | |
| 20260504150359 | 67 | 162 | 1.0 | 6.0 | 0.00 | 0.00 | 0.00 | 42 | |
| 20260504150159 | 67 | 157 | 2.0 | 6.0 | 0.00 | 0.00 | 0.00 | 42 | |
| 20260504141159 | 63 | 165 | 3.0 | 7.0 | 0.00 | 0.00 | 0.00 | 49 | |
| 20260504140759 | 62 | 254 | 4.0 | 7.0 | 0.00 | 0.00 | 0.00 | 53 | |
| 20260504140359 | 62 | 239 | 2.0 | 4.0 | 0.00 | 0.00 | 0.00 | 57 | |
| 20260504140159 | 62 | 261 | 1.0 | 4.0 | 0.00 | 0.00 | 0.00 | 51 | |
| 20260504130601 | 58 | 236 | 4.0 | 10.0 | 0.00 | 0.00 | 0.00 | 56 | |
| 20260504130401 | 58 | 212 | 4.0 | 10.0 | 0.00 | 0.00 | 0.00 | 55 | |
| 20260504130201 | 58 | 238 | 5.0 | 13.0 | 0.00 | 0.00 | 0.00 | 55 | |
| 20260504120200 | 55 | 242 | 6.0 | 14.0 | 0.00 | 0.00 | 0.00 | 59 | |
| 20260504110600 | 52 | 229 | 2.0 | 8.0 | 0.00 | 0.00 | 0.00 | 64 | |
| 20260504110400 | 52 | 239 | 2.0 | 8.0 | 0.00 | 0.00 | 0.00 | 64 | |
| 20260504110159 | 52 | 240 | 2.0 | 7.0 | 0.00 | 0.00 | 0.00 | 64 | |
| 20260504100600 | 53 | 218 | 2.0 | 8.0 | 0.00 | 0.00 | 0.00 | 65 | |
| 20260504100400 | 53 | 216 | 3.0 | 8.0 | 0.00 | 0.00 | 0.00 | 65 | |
| 20260504082005 | 52 | 239 | 0.0 | 2.0 | 0.00 | 0.00 | 0.00 | 65 | |
| 20260504081801 | 52 | 239 | 0.0 | 2.0 | 0.00 | 0.00 | 0.00 | 65 | |
| 20260504081401 | 52 | 239 | 0.0 | 2.0 | 0.00 | 0.00 | 0.00 | 65 | |
| 20260504081005 | 52 | 239 | 0.0 | 2.0 | 0.00 | 0.00 | 0.00 | 65 | |
| 20260504080758 | 52 | 239 | 0.0 | 2.0 | 0.00 | 0.00 | 0.00 | 65 | |
| 20260504080601 | 52 | 238 | 0.0 | 2.0 | 0.00 | 0.00 | 0.00 | 66 | |
| 20260504080402 | 52 | 238 | 0.0 | 2.0 | 0.00 | 0.00 | 0.00 | 65 | |
| 20260504070359 | 51 | 233 | 0.0 | 3.0 | 0.00 | 0.00 | 0.00 | 66 | |
| 20260504070159 | 51 | 233 | 1.0 | 3.0 | 0.00 | 0.00 | 0.00 | 66 | |
| 20260504050559 | 48 | 231 | 0.0 | 0.0 | 0.00 | 0.00 | 0.00 | 68 | |
| 20260504050359 | 48 | 231 | 0.0 | 0.0 | 0.00 | 0.00 | 0.00 | 66 | |
| 20260504050159 | 48 | 231 | 0.0 | 0.0 | 0.00 | 0.00 | 0.00 | 67 | |
| 20260504050003 | 47 | 231 | 0.0 | 0.0 | 0.00 | 0.00 | 0.00 | 68 | |
| 20260504045801 | 47 | 230 | 0.0 | 0.0 | 0.00 | 0.00 | 0.00 | 68 | |
| 20260504045559 | 47 | 231 | 0.0 | 0.0 | 0.00 | 0.00 | 0.00 | 68 | |
| 20260504045359 | 47 | 231 | 0.0 | 0.0 | 0.00 | 0.00 | 0.00 | 68 | |
| 20260504045159 | 47 | 231 | 0.0 | 0.0 | 0.00 | 0.00 | 0.00 | 68 | |
| 20260504045003 | 47 | 231 | 0.0 | 0.0 | 0.00 | 0.00 | 0.00 | 67 | |
| 20260504044800 | 47 | 231 | 0.0 | 1.0 | 0.00 | 0.00 | 0.00 | 68 | |
| 20260504044559 | 47 | 231 | 0.0 | 1.0 | 0.00 | 0.00 | 0.00 | 69 | |
| 20260504044400 | 47 | 230 | 0.0 | 1.0 | 0.00 | 0.00 | 0.00 | 67 | |
| 20260504044200 | 47 | 230 | 0.0 | 1.0 | 0.00 | 0.00 | 0.00 | 67 | |
| 20260504043759 | 47 | 230 | 0.0 | 0.0 | 0.00 | 0.00 | 0.00 | 66 | |
| 20260504043602 | 47 | 230 | 0.0 | 0.0 | 0.00 | 0.00 | 0.00 | 66 | |
| 20260504043401 | 47 | 231 | 0.0 | 0.0 | 0.00 | 0.00 | 0.00 | 66 | |
| 20260504043200 | 47 | 231 | 0.0 | 0.0 | 0.00 | 0.00 | 0.00 | 66 | |
| 20260504043005 | 47 | 230 | 0.0 | 0.0 | 0.00 | 0.00 | 0.00 | 66 | |
| 20260504042400 | 47 | 230 | 0.0 | 2.0 | 0.00 | 0.00 | 0.00 | 67 | |
| 20260504042201 | 47 | 231 | 0.0 | 2.0 | 0.00 | 0.00 | 0.00 | 68 | |
| 20260504042005 | 47 | 230 | 0.0 | 2.0 | 0.00 | 0.00 | 0.00 | 70 | |
| 20260504041800 | 47 | 231 | 1.0 | 3.0 | 0.00 | 0.00 | 0.00 | 69 | |
| 20260504041159 | 47 | 231 | 1.0 | 3.0 | 0.00 | 0.00 | 0.00 | 69 | |
| 20260504040601 | 47 | 230 | 1.0 | 3.0 | 0.00 | 0.00 | 0.00 | 69 | |
| 20260504040400 | 47 | 230 | 1.0 | 3.0 | 0.00 | 0.00 | 0.00 | 69 | |
| 20260504040201 | 47 | 228 | 1.0 | 2.0 | 0.00 | 0.00 | 0.00 | 69 | |
| 20260504040008 | 47 | 228 | 1.0 | 2.0 | 0.00 | 0.00 | 0.00 | 69 | |
| 20260504035801 | 47 | 228 | 0.0 | 1.0 | 0.00 | 0.00 | 0.00 | 69 | |
| 20260504035600 | 47 | 228 | 0.0 | 1.0 | 0.00 | 0.00 | 0.00 | 69 | |
| 20260504035359 | 47 | 228 | 0.0 | 1.0 | 0.00 | 0.00 | 0.00 | 70 | |
| 20260504035200 | 47 | 228 | 0.0 | 1.0 | 0.00 | 0.00 | 0.00 | 70 | |
| 20260504035004 | 47 | 228 | 0.0 | 0.0 | 0.00 | 0.00 | 0.00 | 70 | |
| 20260504034759 | 47 | 228 | 0.0 | 0.0 | 0.00 | 0.00 | 0.00 | 70 | |
| 20260504034600 | 47 | 227 | 0.0 | 0.0 | 0.00 | 0.00 | 0.00 | 70 | |
| 20260504034201 | 47 | 228 | 0.0 | 1.0 | 0.00 | 0.00 | 0.00 | 70 | |
| 20260504034005 | 47 | 228 | 0.0 | 1.0 | 0.00 | 0.00 | 0.00 | 69 | |
| 20260504033759 | 47 | 228 | 0.0 | 1.0 | 0.00 | 0.00 | 0.00 | 69 | |
| 20260504033601 | 47 | 228 | 0.0 | 1.0 | 0.00 | 0.00 | 0.00 | 68 | |
| 20260504033159 | 47 | 228 | 0.0 | 1.0 | 0.00 | 0.00 | 0.00 | 68 | |
| 20260504033005 | 47 | 228 | 0.0 | 1.0 | 0.00 | 0.00 | 0.00 | 67 | |
| 20260504032759 | 48 | 228 | 0.0 | 1.0 | 0.00 | 0.00 | 0.00 | 68 | |
| 20260504032559 | 48 | 228 | 0.0 | 1.0 | 0.00 | 0.00 | 0.00 | 68 | |
| 20260504032202 | 48 | 228 | 0.0 | 0.0 | 0.00 | 0.00 | 0.00 | 68 | |
| 20260504032004 | 48 | 228 | 0.0 | 0.0 | 0.00 | 0.00 | 0.00 | 69 | |
| 20260504031600 | 48 | 228 | 0.0 | 0.0 | 0.00 | 0.00 | 0.00 | 69 | |
| 20260504031359 | 48 | 228 | 0.0 | 2.0 | 0.00 | 0.00 | 0.00 | 69 | |
| 20260504031200 | 48 | 228 | 0.0 | 2.0 | 0.00 | 0.00 | 0.00 | 69 | |
| 20260504031005 | 48 | 227 | 0.0 | 2.0 | 0.00 | 0.00 | 0.00 | 69 | |
| 20260504030800 | 48 | 228 | 0.0 | 2.0 | 0.00 | 0.00 | 0.00 | 69 | |
| 20260504030601 | 48 | 228 | 0.0 | 2.0 | 0.00 | 0.00 | 0.00 | 69 | |
| 20260504030359 | 48 | 228 | 0.0 | 2.0 | 0.00 | 0.00 | 0.00 | 69 | |
| 20260504030200 | 48 | 228 | 0.0 | 2.0 | 0.00 | 0.00 | 0.00 | 69 | |
| 20260504030006 | 49 | 228 | 0.0 | 2.0 | 0.00 | 0.00 | 0.00 | 69 | |
| 20260504025800 | 49 | 228 | 0.0 | 2.0 | 0.00 | 0.00 | 0.00 | 69 | |
| 20260504025600 | 49 | 228 | 0.0 | 0.0 | 0.00 | 0.00 | 0.00 | 69 | |
| 20260504025400 | 49 | 227 | 0.0 | 1.0 | 0.00 | 0.00 | 0.00 | 69 | |
| 20260504025201 | 49 | 228 | 0.0 | 1.0 | 0.00 | 0.00 | 0.00 | 69 | |
| 20260504024759 | 49 | 228 | 0.0 | 1.0 | 0.00 | 0.00 | 0.00 | 69 | |
| 20260504024600 | 49 | 228 | 0.0 | 1.0 | 0.00 | 0.00 | 0.00 | 69 | |
| 20260504024359 | 49 | 228 | 0.0 | 0.0 | 0.00 | 0.00 | 0.00 | 69 | |
| 20260504024200 | 49 | 228 | 0.0 | 0.0 | 0.00 | 0.00 | 0.00 | 70 | |
| 20260504024005 | 49 | 228 | 0.0 | 0.0 | 0.00 | 0.00 | 0.00 | 70 | |
| 20260504023801 | 49 | 228 | 0.0 | 0.0 | 0.00 | 0.00 | 0.00 | 69 | |
| 20260504023559 | 49 | 228 | 0.0 | 0.0 | 0.00 | 0.00 | 0.00 | 69 | |
| 20260504023401 | 49 | 228 | 0.0 | 0.0 | 0.00 | 0.00 | 0.00 | 69 | |
| 20260504023005 | 50 | 228 | 0.0 | 2.0 | 0.00 | 0.00 | 0.00 | 68 | |
| 20260504022759 | 50 | 228 | 0.0 | 2.0 | 0.00 | 0.00 | 0.00 | 68 | |
| 20260504022559 | 50 | 228 | 0.0 | 2.0 | 0.00 | 0.00 | 0.00 | 67 | |
| 20260504022359 | 50 | 228 | 0.0 | 2.0 | 0.00 | 0.00 | 0.00 | 67 | |
| 20260504022005 | 50 | 228 | 0.0 | 0.0 | 0.00 | 0.00 | 0.00 | 66 | |
| 20260504021600 | 50 | 228 | 0.0 | 0.0 | 0.00 | 0.00 | 0.00 | 66 | |
| 20260504021401 | 50 | 228 | 0.0 | 0.0 | 0.00 | 0.00 | 0.00 | 66 | |
| 20260504021202 | 50 | 228 | 0.0 | 0.0 | 0.00 | 0.00 | 0.00 | 66 | |
| 20260504021006 | 50 | 227 | 0.0 | 0.0 | 0.00 | 0.00 | 0.00 | 65 | |
| 20260504020801 | 50 | 228 | 0.0 | 0.0 | 0.00 | 0.00 | 0.00 | 64 | |
| 20260504020600 | 50 | 228 | 0.0 | 0.0 | 0.00 | 0.00 | 0.00 | 64 | |
| 20260504020359 | 51 | 228 | 0.0 | 0.0 | 0.00 | 0.00 | 0.00 | 64 | |
| 20260504020201 | 51 | 228 | 0.0 | 0.0 | 0.00 | 0.00 | 0.00 | 63 | |
| 20260504020003 | 51 | 228 | 0.0 | 0.0 | 0.00 | 0.00 | 0.00 | 62 | |
| 20260504015600 | 51 | 228 | 0.0 | 0.0 | 0.00 | 0.00 | 0.00 | 62 | |
| 20260504015201 | 51 | 228 | 0.0 | 0.0 | 0.00 | 0.00 | 0.00 | 62 | |
| 20260504015004 | 51 | 228 | 0.0 | 0.0 | 0.00 | 0.00 | 0.00 | 62 | |
| 20260504014759 | 51 | 227 | 0.0 | 0.0 | 0.00 | 0.00 | 0.00 | 62 | |
| 20260504014600 | 51 | 227 | 0.0 | 0.0 | 0.00 | 0.00 | 0.00 | 62 | |
| 20260504014400 | 51 | 227 | 0.0 | 0.0 | 0.00 | 0.00 | 0.00 | 60 | |
| 20260504013800 | 52 | 228 | 0.0 | 0.0 | 0.00 | 0.00 | 0.00 | 58 | |
| 20260504013359 | 52 | 228 | 0.0 | 0.0 | 0.00 | 0.00 | 0.00 | 58 | |
| 20260504013200 | 52 | 228 | 0.0 | 0.0 | 0.00 | 0.00 | 0.00 | 57 | |
| 20260504013004 | 52 | 228 | 0.0 | 0.0 | 0.00 | 0.00 | 0.00 | 57 | |
| 20260504012600 | 53 | 227 | 0.0 | 0.0 | 0.00 | 0.00 | 0.00 | 55 | |
| 20260504012201 | 53 | 228 | 0.0 | 0.0 | 0.00 | 0.00 | 0.00 | 55 | |
| 20260504012005 | 53 | 228 | 0.0 | 0.0 | 0.00 | 0.00 | 0.00 | 55 | |
| 20260504011800 | 53 | 228 | 0.0 | 0.0 | 0.00 | 0.00 | 0.00 | 54 | |
| 20260504011600 | 53 | 227 | 0.0 | 0.0 | 0.00 | 0.00 | 0.00 | 54 | |
| 20260504011200 | 54 | 228 | 0.0 | 0.0 | 0.00 | 0.00 | 0.00 | 53 | |
| 20260504011004 | 54 | 228 | 0.0 | 0.0 | 0.00 | 0.00 | 0.00 | 53 | |
| 20260504010759 | 54 | 228 | 0.0 | 0.0 | 0.00 | 0.00 | 0.00 | 52 | |
| 20260504010600 | 54 | 228 | 0.0 | 0.0 | 0.00 | 0.00 | 0.00 | 52 | |
| 20260504010400 | 54 | 228 | 0.0 | 0.0 | 0.00 | 0.00 | 0.00 | 52 | |
| 20260504010004 | 54 | 227 | 0.0 | 0.0 | 0.00 | 0.00 | 0.00 | 51 | |
| 20260504005800 | 55 | 228 | 0.0 | 0.0 | 0.00 | 0.00 | 0.00 | 51 | |
| 20260504005600 | 55 | 228 | 0.0 | 0.0 | 0.00 | 0.00 | 0.00 | 51 | |
| 20260504005400 | 55 | 228 | 0.0 | 0.0 | 0.00 | 0.00 | 0.00 | 51 | |
| 20260504005200 | 55 | 228 | 0.0 | 0.0 | 0.00 | 0.00 | 0.00 | 50 | |
| 20260504005005 | 55 | 228 | 0.0 | 0.0 | 0.00 | 0.00 | 0.00 | 49 | |
| 20260504004759 | 55 | 227 | 0.0 | 0.0 | 0.00 | 0.00 | 0.00 | 48 | |
| 20260504004601 | 56 | 228 | 0.0 | 0.0 | 0.00 | 0.00 | 0.00 | 49 | |
| 20260504004400 | 56 | 228 | 0.0 | 0.0 | 0.00 | 0.00 | 0.00 | 48 | |
| 20260504004159 | 56 | 228 | 0.0 | 0.0 | 0.00 | 0.00 | 0.00 | 48 | |
| 20260504004004 | 56 | 227 | 0.0 | 0.0 | 0.00 | 0.00 | 0.00 | 47 | |
| 20260504003800 | 56 | 228 | 0.0 | 0.0 | 0.00 | 0.00 | 0.00 | 46 | |
| 20260504003600 | 56 | 227 | 0.0 | 0.0 | 0.00 | 0.00 | 0.00 | 46 | |
| 20260504003005 | 57 | 228 | 0.0 | 1.0 | 0.00 | 0.00 | 0.00 | 45 | |
| 20260504002801 | 57 | 228 | 0.0 | 1.0 | 0.00 | 0.00 | 0.00 | 46 | |
| 20260504002600 | 57 | 227 | 0.0 | 1.0 | 0.00 | 0.00 | 0.00 | 46 | |
| 20260504002401 | 57 | 228 | 0.0 | 1.0 | 0.00 | 0.00 | 0.00 | 45 | |
| 20260504002201 | 57 | 228 | 0.0 | 1.0 | 0.00 | 0.00 | 0.00 | 44 | |
| 20260504002000 | 58 | 228 | 0.0 | 1.0 | 0.00 | 0.00 | 0.00 | 44 | |
| 20260504001800 | 58 | 228 | 0.0 | 1.0 | 0.00 | 0.00 | 0.00 | 44 | |
| 20260504001601 | 58 | 228 | 0.0 | 1.0 | 0.00 | 0.00 | 0.00 | 43 | |
| 20260504001400 | 58 | 228 | 0.0 | 1.0 | 0.00 | 0.00 | 0.00 | 42 | |
| 20260504001200 | 58 | 228 | 0.0 | 1.0 | 0.00 | 0.00 | 0.00 | 42 | |
| 20260504001005 | 58 | 228 | 0.0 | 2.0 | 0.00 | 0.00 | 0.00 | 41 | |
| 20260504000600 | 59 | 228 | 0.0 | 3.0 | 0.00 | 0.00 | 0.00 | 42 | |
| 20260504000401 | 59 | 228 | 0.0 | 3.0 | 0.00 | 0.00 | 0.00 | 41 | |
| 20260504000003 | 59 | 227 | 1.0 | 3.0 | 0.00 | 0.00 | 0.00 | 40 | |
| 20260503235758 | 59 | 228 | 0.0 | 2.0 | 0.00 | 0.00 | 0.00 | 40 | |
| 20260503235600 | 59 | 228 | 1.0 | 2.0 | 0.00 | 0.00 | 0.00 | 39 | |
| 20260503235401 | 59 | 228 | 0.0 | 2.0 | 0.00 | 0.00 | 0.00 | 39 | |
| 20260503235159 | 60 | 228 | 1.0 | 2.0 | 0.00 | 0.00 | 0.00 | 39 | |
| 20260503235004 | 60 | 228 | 1.0 | 4.0 | 0.00 | 0.00 | 0.00 | 39 | |
| 20260503234759 | 60 | 228 | 1.0 | 4.0 | 0.00 | 0.00 | 0.00 | 39 | |
| 20260503234559 | 60 | 228 | 1.0 | 4.0 | 0.00 | 0.00 | 0.00 | 38 | |
| 20260503234359 | 60 | 228 | 0.0 | 4.0 | 0.00 | 0.00 | 0.00 | 37 | |
| 20260503234200 | 60 | 228 | 2.0 | 4.0 | 0.00 | 0.00 | 0.00 | 37 | |
| 20260503234003 | 60 | 224 | 1.0 | 5.0 | 0.00 | 0.00 | 0.00 | 36 | |
| 20260503233400 | 60 | 222 | 2.0 | 5.0 | 0.00 | 0.00 | 0.00 | 36 | |
| 20260503233200 | 61 | 233 | 1.0 | 4.0 | 0.00 | 0.00 | 0.00 | 36 | |
| 20260503233006 | 61 | 237 | 1.0 | 4.0 | 0.00 | 0.00 | 0.00 | 35 | |
| 20260503232800 | 61 | 237 | 1.0 | 4.0 | 0.00 | 0.00 | 0.00 | 35 | |
| 20260503232600 | 61 | 237 | 1.0 | 4.0 | 0.00 | 0.00 | 0.00 | 35 | |
| 20260503232401 | 61 | 237 | 2.0 | 6.0 | 0.00 | 0.00 | 0.00 | 36 | |
| 20260503232200 | 61 | 238 | 2.0 | 6.0 | 0.00 | 0.00 | 0.00 | 35 | |
| 20260503231800 | 61 | 241 | 2.0 | 6.0 | 0.00 | 0.00 | 0.00 | 35 | |
| 20260503231601 | 61 | 241 | 2.0 | 6.0 | 0.00 | 0.00 | 0.00 | 35 | |
| 20260503231359 | 61 | 228 | 0.0 | 5.0 | 0.00 | 0.00 | 0.00 | 34 | |
| 20260503231200 | 61 | 227 | 1.0 | 5.0 | 0.00 | 0.00 | 0.00 | 35 | |
| 20260503231003 | 61 | 228 | 2.0 | 5.0 | 0.00 | 0.00 | 0.00 | 34 | |
| 20260503230601 | 62 | 253 | 1.0 | 4.0 | 0.00 | 0.00 | 0.00 | 35 | |
| 20260503230400 | 62 | 304 | 1.0 | 5.0 | 0.00 | 0.00 | 0.00 | 33 | |
| 20260503230005 | 62 | 359 | 2.0 | 5.0 | 0.00 | 0.00 | 0.00 | 34 | |
| 20260503225759 | 62 | 29 | 2.0 | 5.0 | 0.00 | 0.00 | 0.00 | 33 | |
| 20260503225600 | 62 | 354 | 3.0 | 5.0 | 0.00 | 0.00 | 0.00 | 33 | |
| 20260503225359 | 62 | 247 | 2.0 | 5.0 | 0.00 | 0.00 | 0.00 | 32 | |
| 20260503225200 | 62 | 290 | 1.0 | 5.0 | 0.00 | 0.00 | 0.00 | 34 | |
| 20260503225004 | 62 | 246 | 2.0 | 5.0 | 0.00 | 0.00 | 0.00 | 37 | |
| 20260503224801 | 62 | 324 | 2.0 | 5.0 | 0.00 | 0.00 | 0.00 | 34 | |
| 20260503224600 | 62 | 322 | 2.0 | 7.0 | 0.00 | 0.00 | 0.00 | 34 | |
| 20260503224400 | 62 | 329 | 2.0 | 7.0 | 0.00 | 0.00 | 0.00 | 34 | |
| 20260503224201 | 62 | 323 | 1.0 | 7.0 | 0.00 | 0.00 | 0.00 | 33 | |
| 20260503224005 | 62 | 354 | 3.0 | 7.0 | 0.00 | 0.00 | 0.00 | 33 | |
| 20260503223759 | 62 | 320 | 3.0 | 7.0 | 0.00 | 0.00 | 0.00 | 32 | |
| 20260503223600 | 62 | 10 | 3.0 | 7.0 | 0.00 | 0.00 | 0.00 | 33 | |
| 20260503223359 | 62 | 345 | 3.0 | 8.0 | 0.00 | 0.00 | 0.00 | 32 | |
| 20260503223201 | 62 | 8 | 4.0 | 9.0 | 0.00 | 0.00 | 0.00 | 32 | |
| 20260503223005 | 62 | 354 | 3.0 | 10.0 | 0.00 | 0.00 | 0.00 | 34 | |
| 20260503222800 | 62 | 340 | 1.0 | 10.0 | 0.00 | 0.00 | 0.00 | 34 | |
| 20260503222600 | 62 | 328 | 4.0 | 10.0 | 0.00 | 0.00 | 0.00 | 33 | |
| 20260503222400 | 63 | 263 | 4.0 | 10.0 | 0.00 | 0.00 | 0.00 | 34 | |
| 20260503222201 | 63 | 241 | 5.0 | 10.0 | 0.00 | 0.00 | 0.00 | 34 | |
| 20260503222005 | 63 | 228 | 3.0 | 8.0 | 0.00 | 0.00 | 0.00 | 33 | |
| 20260503221800 | 63 | 327 | 3.0 | 8.0 | 0.00 | 0.00 | 0.00 | 33 | |
| 20260503221400 | 63 | 318 | 1.0 | 10.0 | 0.00 | 0.00 | 0.00 | 34 | |
| 20260503221159 | 63 | 314 | 1.0 | 10.0 | 0.00 | 0.00 | 0.00 | 33 | |
| 20260503221004 | 63 | 313 | 2.0 | 10.0 | 0.00 | 0.00 | 0.00 | 33 | |
| 20260503220800 | 63 | 4 | 4.0 | 10.0 | 0.00 | 0.00 | 0.00 | 32 | |
| 20260503220600 | 63 | 345 | 5.0 | 10.0 | 0.00 | 0.00 | 0.00 | 33 | |
| 20260503220359 | 63 | 350 | 4.0 | 10.0 | 0.00 | 0.00 | 0.00 | 33 | |
| 20260503220159 | 63 | 297 | 2.0 | 11.0 | 0.00 | 0.00 | 0.00 | 33 | |
| 20260503220005 | 63 | 335 | 1.0 | 11.0 | 0.00 | 0.00 | 0.00 | 31 | |
| 20260503215800 | 63 | 280 | 4.0 | 11.0 | 0.00 | 0.00 | 0.00 | 30 | |
| 20260503215600 | 63 | 290 | 4.0 | 11.0 | 0.00 | 0.00 | 0.00 | 34 | |
| 20260503215400 | 63 | 298 | 2.0 | 9.0 | 0.00 | 0.00 | 0.00 | 35 | |
| 20260503215200 | 63 | 314 | 4.0 | 9.0 | 0.00 | 0.00 | 0.00 | 34 | |
| 20260503215004 | 63 | 243 | 2.0 | 8.0 | 0.00 | 0.00 | 0.00 | 35 | |
| 20260503214800 | 63 | 230 | 3.0 | 8.0 | 0.00 | 0.00 | 0.00 | 35 | |
| 20260503214601 | 63 | 25 | 3.0 | 6.0 | 0.00 | 0.00 | 0.00 | 32 | |
| 20260503214401 | 63 | 332 | 2.0 | 6.0 | 0.00 | 0.00 | 0.00 | 32 | |
| 20260503214005 | 63 | 216 | 3.0 | 13.0 | 0.00 | 0.00 | 0.00 | 33 | |
| 20260503213758 | 63 | 204 | 1.0 | 13.0 | 0.00 | 0.00 | 0.00 | 33 | |
| 20260503213559 | 63 | 233 | 2.0 | 13.0 | 0.00 | 0.00 | 0.00 | 34 | |
| 20260503213400 | 63 | 247 | 7.0 | 13.0 | 0.00 | 0.00 | 0.00 | 31 | |
| 20260503213201 | 63 | 243 | 4.0 | 11.0 | 0.00 | 0.00 | 0.00 | 34 | |
| 20260503213005 | 63 | 256 | 3.0 | 9.0 | 0.00 | 0.00 | 0.00 | 32 | |
| 20260503212800 | 63 | 297 | 3.0 | 9.0 | 0.00 | 0.00 | 0.00 | 31 | |
| 20260503212600 | 63 | 242 | 3.0 | 9.0 | 0.00 | 0.00 | 0.00 | 35 | |
| 20260503212400 | 63 | 234 | 4.0 | 9.0 | 0.00 | 0.00 | 0.00 | 35 | |
| 20260503212159 | 63 | 189 | 1.0 | 9.0 | 0.00 | 0.00 | 0.00 | 35 | |
| 20260503211759 | 63 | 342 | 4.0 | 12.0 | 0.00 | 0.00 | 0.00 | 33 | |
| 20260503211400 | 63 | 354 | 4.0 | 12.0 | 0.00 | 0.00 | 0.00 | 33 | |
| 20260503211201 | 63 | 321 | 4.0 | 12.0 | 0.00 | 0.00 | 0.00 | 32 | |
| 20260503211004 | 63 | 266 | 4.0 | 12.0 | 0.00 | 0.00 | 0.00 | 32 | |
| 20260503210400 | 63 | 253 | 6.0 | 12.0 | 0.00 | 0.00 | 0.00 | 35 | |
| 20260503210200 | 63 | 229 | 5.0 | 11.0 | 0.00 | 0.00 | 0.00 | 35 | |
| 20260503205802 | 63 | 249 | 3.0 | 11.0 | 0.00 | 0.00 | 0.00 | 36 | |
| 20260503205559 | 63 | 251 | 5.0 | 11.0 | 0.00 | 0.00 | 0.00 | 35 | |
| 20260503205159 | 62 | 354 | 2.0 | 7.0 | 0.00 | 0.00 | 0.00 | 35 | |
| 20260503205005 | 63 | 320 | 3.0 | 9.0 | 0.00 | 0.00 | 0.00 | 34 | |
| 20260503204800 | 63 | 354 | 4.0 | 9.0 | 0.00 | 0.00 | 0.00 | 34 |